Forside
METAR-TAF:

METAR-TAF

Lufthavne :

Branch County Memorial Airport

Coldwater, Michigan, USA

Breddekreds: 41-56N, længdekreds: 085-03-09W, højde: 292 m

Aktuelle vejr

Denne rapport blev lavet for 8 minutter siden, kl. 14:15 UTC
Vind 6 kt fra vestnordvest
Temperatur 13°C
Fugtighed 82%
Tryk 1008 hPa
Sigt: 11.3 km
Overskyet i en højde af 1100 ft

METAR: KOEB 081415Z AUTO 29006KT 7SM OVC011 13/10 A2976 RMK AO2

Tid: 10:23 (14:23 UTC)


TAF: fraværende

Vejrobservationer og prognoser fra mere end 4000 lufthavne (METAR og TAF).

De gule og røde prikker repræsenterer de meteorologiske stationer.

Flyt musen over at se navnet på stationen.

Så klik over at se vejr observationer og prognoser.

At skifte det kort: Klik på de grønne knapper med et sort kors for at zoome ind; på den grønne knap med en bindestreg for at zoome ud; eller på de grønne pile for tilstødende kort.


METAR-TAF: